Погода в Ольговке

Россия / Курская область     51°24′05″N   35°00′55″E
темп.,
°C
ветер,
м/с
пор.,
м/с
влажн.,
%
обл.,
%
осадки,
мм/ч
давл.,
гПа
погр.,
м
19 сентября, вс
вс1900:00+9вюв81686100 0.5 1011494
03:00+10вюв71482100 1.0 1010344
06:00+9юв81792100 0.4 1008474
09:00+10вюв71593100 5.7 1007543
12:00+11вюв41096100 1.3 1008467
15:00+12вюв4896100 1.5 1008453
18:00+12в2497100 0.4 1007189
21:00+13в129999 0.6 100664
20 сентября, пн
пн2000:00+12юв229787 0.0 100628
03:00+11вюв2298100 0.1 100539
06:00+12в3699100 2.1 1004191
09:00+11ююз6895100 4.8 1004484
12:00+9юз5689100 0.1 1006556
15:00+9ююз5888100 0.3 1007617
18:00+8ююз5988100 0.1 1008654
21:00+8ю5991100 0.4 1008587
21 сентября, вт
вт2100:00+8ю61195100 1.1 1008677
03:00+9юз6994100 2.3 1008716
06:00+7зюз61094100 0.8 1009727
09:00+7зюз61092100 1.1 1010663
12:00+8зюз6986100 0.1 10121062
15:00+7зюз5987100 0.1 10121001
18:00+6зюз5790100 0.3 1013980
21:00+4зюз4697100 0.8 1014725
22 сентября, ср
ср2200:00+4зюз4696100 0.4 1014770
03:00+5зюз4694100 0.6 1014760
06:00+5зюз3594100 0.3 1014666
09:00+5зюз3595100 0.5 1015682
12:00+5зюз3493100 0.2 1016753
15:00+6зюз3491100 0.3 1016725
18:00+6юз2390100 0.1 1016405
21:00+6ююв1191100 0.1 1017120
23 сентября, чт
чт2300:00+6юв1291100 0.0 1016159
03:00+6вюв2391100 0.0 1015189
06:00+6юв2492100 0.1 1015139
09:00+6юв2487100 0.1 1015330
12:00+8ююв357378 0.2 1014954
15:00+9юз2371100 0.6 1013717
18:00+8з2382100 0.5 1014136
21:00+6сз2290100 0.9 1014128